STARLINK-11468, 62221

Orbit data source: Space-Track

STARLINK-11468, 62221 is a payload satellite owned by SpaceX/Seattle (US) in LEO that was launched on Thu, 05 Dec 2024 UTC via an FALCON 9 launch vehicle from the Air Force Western Test Range (AFWTR). Payload-class satellites include a variety of spacecraft equipped with specific instruments for various scientific and technological missions. These include communications satellites like Starlink; space stations such as the ISS; scientific satellites like the Hubble; Earth observation satellites from companies like Planet Labs, Umbra, and HawkEye 360; GPS; miniature CubeSats for education and research; and military/defense satellites.

Loading next visibility...
Identifier
62221, 2024-231D
Orbit
LEO
Country
Flag of USUS
Related business
Manufacturer
SpaceX/Seattle
Mission
Operational Commercial Communications
Bus & Motor
STARLINK V2MD, Unknown motor
Mass
960 kg wet, ~910 kg dry
Launch date (UTC)
2024-12-05 (11 months ago)
Launch vehicle
FALCON 9
Launch site
Air Force Western Test Range (AFWTR)
Object type
Payload
Rocket body
Debris
Shape & HBR
Box + 2 Pan, 18.1 m
Radar Cross Section
36.964 m², Large (>1 m²)

Expand to show TLE details & history
Last TLE update: 12 hours ago

TLE from 12 hours ago
0 STARLINK-11468
1 62221U 24231D   25298.68620094  .00158186  00000-0  12837-2 0  9998
2 62221  53.1561  47.0812 0001525  97.8471 262.2720 15.69748314 52205
Epoch: 2025-10-25T16:28Z
TLE epoch observation values (Epoch: 2025-10-25T16:28:07.761Z)
Latitude
-0.00001°
Longitude
125.73567°
Altitude
360.67 km
Speed
7.694 km/s
True Right ascension
03h 08m 19s
True Declination
0° 00' 00"
Sunlit
Object was in full shadow at epoch
Visualization orbit readout
Latitude
Unknown
Longitude
Unknown
Altitude
Unknown
Speed
Unknown
Apparent Right ascension
Unknown
Apparent Declination
Unknown
Sunlit
N/A
Visualization observer readout
Local Sidereal Time
23:45:47
Azimuth
Unknown
Elevation
Unknown
Doppler factor
Unknown
Orbital elements
Apogee altitude
360.906 km
Perigee altitude
358.851 km
Semi-major axis
6,738.015 km
Eccentricity
0.00015
Inclination
53.1561°
RAAN
47.0812°
Arg. of periapsis
97.8471°
True anomaly
262.25468°
Mean anomaly
262.272°
Eccentric anomaly
262.26334°
Mean motion
3.92415 °/min
Orbital period
91.74 mins
BSTAR
0.0012837
Loading maneuver chart data...
Computing Atmospheric mass density...
Loading historical data...
Loading historical data...
Loading historical data...
Loading historical data...
Loading historical data...
Loading historical data...
Loading historical data...

Documentation

Showing up to 5 results
|